Skip Page Navigation
NASA JPL Caltech
NASA Logo - Jet Propulsion Laboratory + View the NASA Portal
+ Center for Near-Earth Object Studies
JPL Home Earth Solar System Stars & Galaxies Technology
JPL Solar System Dynamics
BODIES ORBITS EPHEMERIDES TOOLS PHYSICAL DATA DISCOVERY FAQ SITE MAP
JPL Small-Body Database Browser
Search: [ help ]  
(2018 RF2)
Classification: Apollo [NEO]          SPK-ID: 3827322
Ephemeris | Orbit Diagram | Orbital Elements | Mission Design | Physical Parameters | Close-Approach Data ]

[ hide orbit diagram ]

For accurate long-term ephemerides, please instead use our Horizons system.This orbit viewer was implemented using two-body methods, and hence should not be used for determining accurate long-term trajectories (over several years or decades) or planetary encounter circumstances.


Orbital Elements at Epoch 2459396.5 (2021-Jul-01.0) TDB
Reference: JPL 3 (heliocentric ecliptic J2000)
 Element Value Uncertainty (1-sigma)   Units 
e .3398760312651408 0.00024148  
a 1.02393442710105 0.00012836 au
q .6759236577421995 0.00016256 au
i 9.641562835686027 0.0085137 deg
node 344.2323254603857 0.00026249 deg
peri 110.9646217477402 0.003291 deg
M 186.22419836656 0.15196 deg
tp 2459579.181027048601
(2021-Dec-30.68102705)
0.1941 TDB
period 378.4483749712196
1.04
0.071165
0.0001948
d
yr
n .9512525982635742 0.00017888 deg/d
Q 1.371945196459901 0.00017199 au
  Orbit Determination Parameters
   # obs. used (total)      25  
   data-arc span      1 day  
   first obs. used      2018-09-07  
   last obs. used      2018-09-08  
   planetary ephem.      DE441  
   SB-pert. ephem.      SB441-N16  
   condition code      6  
   norm. resid. RMS      .43565  
   source      ORB  
   producer      Otto Matic  
   solution date      2021-Apr-15 20:38:44  

Additional Information
 Earth MOID = .00991212 au 
 Jupiter MOID = 3.80592 au 
 T_jup = 5.904 
[ show covariance matrix ]

Ephemeris | Orbit Diagram | Orbital Elements | Mission Design | Physical Parameters | Close-Approach Data ]

Physical Parameter Table
Parameter Symbol Value Units Sigma Reference Notes
absolute magnitude H 28.2   .71211 MPO452097 autocmod 2.6n

[ hide close-approach data ]
Close-Approach Data   ...sorted by Date/Time (TDB)
Date/Time (TDB) Time Uncertainty
(days_HH:MM)
Body Nominal Distance (au) Minimum Distance (au) Maximum Distance (au) V-relative (km/s) V-infinity (km/s) JD (TDB) Time Uncertainty (minutes) Semi-major axis (km) Semi-minor axis (km) range-LOV angle (deg) N-sigma BP Orbit Ref. Reference Modified
1989-Sep-09 21:25 4_00:37 Earth 0.0116253167719605 0.00968104606979748 0.136773538537156 11.121982385123 11.1013557558705 2447779.392085257 5797.11070234295 6483231.09403014 176.001195587922 -56.4522458736337 7336.16457254681 T 3 CATAB v2.0g-lin.ifort 2021-Apr-15 20:38:44 2021-Apr-15 20:38
1996-Apr-12 20:12 5_07:43 Earth 0.172855620940738 0.104862440707647 0.259347863247452 14.8986353262425 14.8976006667642 2450186.341399285 7663.37401117927 4795901.52694044 1087.63664470039 32.2131536735975 10768.015368257 T 3 CATAB v2.0g-lin.ifort 2021-Apr-15 20:38:44 2021-Apr-15 20:38
1997-Apr-24 16:46 4_09:25 Earth 0.378626680730335 0.293661631959626 0.464792372084137 21.3391015896666 21.3387718065883 2450563.198436291 6325.04989917355 4397372.93637758 992.548964502645 13.6322182877217 11800.2555369747 T 3 CATAB v2.0g-lin.ifort 2021-Apr-15 20:38:44 2021-Apr-15 20:38
1999-Feb-22 05:22 7_11:46 Venus 0.145721440841207 0.131935244962109 0.20321168351299 11.4569625065333 11.4556617361155 2451231.723314980 10786.4788879271 4623322.72718993 1197.11120853753 -64.902747645444 11908.0594496131 T 3 CATAB v2.0g-lin.ifort 2021-Apr-15 20:38:44 2021-Apr-15 20:38
2002-May-21 18:31 6_15:56 Venus 0.0228777562518605 0.0158734485443497 0.0820150924422004 10.0759308326512 10.0665060031519 2452416.271287240 9595.51010254682 3191740.81505476 549.592714273723 43.9859979360483 4779.24092674149 T 3 CATAB v2.0g-lin.ifort 2021-Apr-15 20:38:44 2021-Apr-15 20:38
2016-Aug-23 02:40 07:49 Earth 0.424643991370622 0.417703553928688 0.431584581931013 23.0831906061057 23.0829187781663 2457623.611129613 469.482752540559 346328.876264521 526.865845073756 -2.12626768168428 3968.34900978005 T 3 CATAB v2.0g-lin.ifort 2021-Apr-15 20:38:44 2021-Apr-15 20:38
2017-Sep-01 19:22 03:49 Earth 0.212786297670371 0.209200685737816 0.216372100325506 16.8445946007128 16.8438512089943 2457998.306755876 228.707705063717 179086.70891868 377.759122661848 -3.25595805133578 4110.49527625636 T 3 CATAB v2.0g-lin.ifort 2021-Apr-15 20:38:44 2021-Apr-15 20:38
2018-Sep-10 08:58 < 00:01 Earth 0.010312043318741 0.0102870172197057 0.0103370688949316 10.8757835903874 10.8519997379356 2458371.873414741 0.126468071765981 1242.54224418256 15.1089072690481 0.0341199181386842 818.583404292424 T 3 CATAB v2.0g-lin.ifort 2021-Apr-15 20:38:44 2021-Apr-15 20:38
2019-Aug-30 22:00 12:05 Earth 0.216619858218983 0.213512101050105 0.219731237594667 7.16413895015616 7.16242182425646 2458726.416716210 725.223517944702 161231.831098497 590.248507394591 15.9264517074363 15472.4337472564 T 3 CATAB v2.0g-lin.ifort 2021-Apr-15 20:38:44 2021-Apr-15 20:38
2020-Jul-28 13:26 16:31 Earth 0.34489861429711 0.34158041990645 0.348218680969447 8.36798584692619 8.36706258711943 2459059.059674870 991.037186672721 170294.124398484 1231.31036509951 13.6389335314942 7529.86599784337 T 3 CATAB v2.0g-lin.ifort 2021-Apr-15 20:38:44 2021-Apr-15 20:38
2020-Dec-03 07:47 1_01:29 Earth 0.326106524878568 0.32454287036933 0.327670921411869 10.8916762607706 10.8909260676088 2459186.824396807 1528.7902964486 81759.3982368361 1248.66017907022 17.5108284643721 6650.76516744076 T 3 CATAB v2.0g-lin.ifort 2021-Apr-15 20:38:44 2021-Apr-15 20:38
2021-Jul-04 02:45 21:31 Earth 0.396931250862499 0.394695254541933 0.399169723810699 8.79891743268007 8.79815449924075 2459399.614843495 1291.11729699904 122028.758933759 1212.57345836607 23.9137445759033 16108.2118376776 T 3 CATAB v2.0g-lin.ifort 2021-Apr-15 20:38:44 2021-Apr-15 20:38
2022-Jan-06 07:27 3_19:18 Venus 0.106440850579866 0.100222162437787 0.113609497843708 8.40064149434224 8.39821258700295 2459585.810378582 5477.65555034585 602896.569132964 1421.50412477916 -56.2121851402244 7237.59841681547 T 3 CATAB v2.0g-lin.ifort 2021-Apr-15 20:38:44 2021-Apr-15 20:38
2022-Jan-06 10:57 1_11:19 Earth 0.326740850379464 0.325964587892504 0.327525759056579 11.8261271456446 11.8254375745639 2459585.956470122 2118.70135858827 92445.5813021457 1113.78357072711 -65.1067386087657 24598.2933369867 T 3 CATAB v2.0g-lin.ifort 2021-Apr-15 20:38:44 2021-Apr-15 20:38
2022-Jun-09 18:39 1_07:52 Earth 0.391464148458931 0.391074496154993 0.391857311276069 8.38911592403811 8.38830454241043 2459740.277176977 1912.22737818893 62147.6735616408 2642.4315795725 -71.8618668637455 13157.0234263251 T 3 CATAB v2.0g-lin.ifort 2021-Apr-15 20:38:44 2021-Apr-15 20:38
2023-Feb-11 01:29 2_08:57 Earth 0.265912815603146 0.260735057116257 0.271296586908417 9.99426598144447 9.99326334388396 2459986.561598723 3417.32444128413 453437.585032777 1106.83285804821 -54.488324318239 16635.2229242375 T 3 CATAB v2.0g-lin.ifort 2021-Apr-15 20:38:44 2021-Apr-15 20:38
2023-May-07 23:34 3_04:47 Earth 0.31988886925214 0.313414256685866 0.326397591597601 6.76093318286868 6.75970108229871 2460072.482278254 4607.00352826978 363222.057578899 2824.20127625411 -27.0206894713499 4495.96202832787 T 3 CATAB v2.0g-lin.ifort 2021-Apr-15 20:38:44 2021-Apr-15 20:38
2024-Mar-26 11:35 2_01:07 Earth 0.127433192513796 0.117489314432751 0.138511765939422 8.81109497752385 8.80872164601596 2460395.982911240 2946.90772990758 796991.491189632 1297.64954502323 -48.6430364882676 9130.08473420765 T 3 CATAB v2.0g-lin.ifort 2021-Apr-15 20:38:44 2021-Apr-15 20:38
2025-Mar-04 06:40 1_08:16 Venus 0.111025801393432 0.0872204112849722 0.134877299372974 15.1041561053942 15.1028611131079 2460738.777714291 1935.66203337217 1193573.57745428 413.691495571866 -5.33300194343191 3394.56903184288 T 3 CATAB v2.0g-lin.ifort 2021-Apr-15 20:38:44 2021-Apr-15 20:38
2025-Apr-12 06:49 1_01:55 Earth 0.159270666374987 0.143653519258973 0.175639754760081 14.4349590277434 14.4338000410778 2460777.784114783 1555.18362114026 966542.043665224 1158.15646161462 34.2068143052777 9741.23406141032 T 3 CATAB v2.0g-lin.ifort 2021-Apr-15 20:38:44 2021-Apr-15 20:38
2026-Apr-24 02:46 1_02:05 Earth 0.361782108705696 0.340772567021694 0.382858870677593 20.8402631661496 20.839909766793 2461154.615610928 1564.69648622702 1077768.07396333 1050.57416943595 13.171443553893 10221.9723647327 T 3 CATAB v2.0g-lin.ifort 2021-Apr-15 20:38:44 2021-Apr-15 20:38
2044-Nov-10 08:55 3_21:01 Venus 0.123970931995218 0.0509580547450226 0.197313535984421 15.6649129927881 15.6637947487438 2467929.871661977 5581.06017275489 3662988.40583319 398.358318481783 -4.07079476921449 2987.02103096274 T 3 CATAB v2.0g-lin.ifort 2021-Apr-15 20:38:44 2021-Apr-15 20:38
2045-Aug-26 02:03 2_15:06 Earth 0.366278985748281 0.306028024984767 0.426554880819655 21.3429442270262 21.3426033878616 2468218.585362244 3786.4059498284 3008869.83633715 508.234617144892 -2.85022525529585 4773.46795434193 T 3 CATAB v2.0g-lin.ifort 2021-Apr-15 20:38:44 2021-Apr-15 20:38
2046-Sep-04 20:48 2_09:47 Earth 0.147835628590606 0.0871995992673752 0.208714270388354 14.9866015429086 14.9853988700494 2468593.366775083 3466.67126643472 3044412.64552414 340.134080432585 -5.16036885928073 5133.20414534521 T 3 CATAB v2.0g-lin.ifort 2021-Apr-15 20:38:44 2021-Apr-15 20:38
2047-Sep-12 06:56 13:58 Earth 0.0737486105478822 0.0194578009328812 0.132968960920795 9.0737436110063 9.06976100512744 2468965.788625197 837.703562928981 2988273.63422495 44.1706267496945 11.7964157477324 30757.3863942951 T 3 CATAB v2.0g-lin.ifort 2021-Apr-15 20:38:44 2021-Apr-15 20:38
